Location: Parkland
(50.2500°N, 113.6667°W)
Time: 03:15:41
(UTC+00:00)

Envisat - Visible Passes

Search period start: 07 December 2021 00:00
Search period end: 17 December 2021 00:00
Orbit: 764 x 766 km, 98.2° (Epoch: 06 December)

Date Brightness Start Highest point End Pass type
(mag) Time Alt. Az. Time Alt. Az. Time Alt. Az.
07 Dec 4.4 12:02:15 10° NNE 12:06:58 36° E 12:11:38 10° SSE visible
07 Dec 3.5 13:41:21 10° N 13:45:59 37° WNW 13:50:36 10° SW visible
08 Dec 5.9 01:02:31 10° SW 01:05:52 17° W 01:09:13 10° NW visible
08 Dec 5.5 11:26:12 10° NE 11:29:44 19° E 11:33:16 10° SE visible
08 Dec 2.9 13:04:12 10° N 13:09:17 71° WNW 13:14:20 10° SSW visible
09 Dec 4.9 00:24:01 10° SSW 00:28:37 34° W 00:33:15 10° NNW visible
09 Dec 3.5 12:27:21 10° NNE 12:32:24 59° E 12:37:24 10° S visible
09 Dec 4.0 14:07:01 10° N 14:11:03 24° WNW 14:15:05 10° WSW visible
10 Dec 6.4 01:30:49 10° W 01:31:34 10° W 01:32:19 10° WNW visible
10 Dec 4.8 11:50:52 10° NNE 11:55:19 30° E 11:59:44 10° SSE visible
10 Dec 3.2 13:29:40 10° N 13:34:29 44° WNW 13:39:18 10° SW visible
11 Dec 5.7 00:50:19 10° SW 00:54:10 21° W 00:58:03 10° NW visible
11 Dec 5.7 11:15:07 10° NE 11:18:01 15° E 11:20:55 10° ESE visible
11 Dec 2.9 12:52:37 10° NNE 12:57:44 86° WNW 13:02:49 10° SSW visible
11 Dec 4.4 14:32:59 10° NNW 14:36:03 16° NW 14:39:06 10° W visible
12 Dec 4.5 00:12:11 10° SSW 00:16:58 42° W 00:21:49 10° NNW visible
12 Dec 3.9 12:15:52 10° NNE 12:20:48 48° E 12:25:42 10° S visible
12 Dec 3.8 13:55:17 10° N 13:59:37 29° WNW 14:03:56 10° WSW visible
13 Dec 6.0 01:17:27 10° WSW 01:19:49 13° W 01:22:11 10° WNW visible
13 Dec 5.1 11:39:31 10° NE 11:43:39 24° E 11:47:45 10° SE visible
13 Dec 3.0 13:18:01 10° N 13:22:59 54° WNW 13:27:55 10° SW visible
14 Dec 5.4 00:38:16 10° SSW 00:42:29 26° W 00:46:45 10° NW visible
14 Dec 6.0 11:04:21 10° ENE 11:06:17 12° E 11:08:13 10° ESE visible
14 Dec 3.0 12:41:03 10° NNE 12:46:11 78° ESE 12:51:16 10° S visible
14 Dec 4.2 14:21:05 10° NNW 14:24:38 19° WNW 14:28:10 10° W visible
15 Dec 4.3 12:04:24 10° NNE 12:09:10 39° E 12:13:54 10° SSE visible
15 Dec 3.5 13:43:34 10° N 13:48:09 35° WNW 13:52:42 10° SW visible
16 Dec 5.9 01:04:56 10° SW 01:08:05 16° W 01:11:16 10° NW visible
16 Dec 5.4 11:28:16 10° NE 11:31:58 20° E 11:35:38 10° SE visible
16 Dec 2.9 13:06:24 10° N 13:11:27 67° WNW 13:16:29 10° SSW visible
16 Dec 4.6 14:47:21 10° NNW 14:49:34 13° NW 14:51:47 10° WNW visible
